Погода в Старовеличковской

Россия / Краснодарский край     45°25′46″N   38°43′51″E
темп.,
°C
ветер,
м/с
пор.,
м/с
влажн.,
%
обл.,
%
осадки,
мм/ч
давл.,
гПа
погр.,
м
17 мая, вт
вт1700:00+11юз357689 0.0 101879
03:00+13юз4774100 0.0 1017189
06:00+14юз4977100 0.0 1016249
09:00+17зюз576880 0.6 1016626
12:00+21з6845100 0.3 10152663
15:00+21з794470 0.3 10152536
18:00+18з696097 0.1 1015889
21:00+15зюз396895 0.1 1016411
18 мая, ср
ср1800:00+12ююз4977100 0.1 1015196
03:00+13ююз4138169 0.2 1013381
06:00+14юз41267100 0.0 1011558
09:00+14ююв1378100 0.1 1011168
12:00+17ююз3768100 0.1 10101025
15:00+20юз51158100 0.6 10081887
18:00+13юз21095100 3.5 1009548
21:00+13зюз4895100 4.4 1010392
19 мая, чт
чт1900:00+11зсз61094100 0.1 1013558
03:00+9з4109399 0.1 1015376
06:00+10зюз3590100 0.2 1016185
09:00+14з796696 0.8 10171202
12:00+14сз786594 0.9 10191348
15:00+13сз68697 1.4 10201080
18:00+14сз467579 0.6 1021789
21:00+10з36855 0.8 1023103
20 мая, пт
пт2000:00+9зюз469234 0.0 102497
03:00+8зюз359044 0.0 102468
06:00+10зюз488680 0.0 1024167
09:00+17з685771 0.2 10251394
12:00+19зсз784622 0.3 10252315
15:00+20зсз78465 0.3 10242187
18:00+18з575919 0.0 1024860
21:00+14зюз51168100 0.0 1024336
21 мая, сб
сб2100:00+14юз5126584 0.0 1023433
03:00+11юз413828 0.0 1022333
06:00+12юз5128317 0.0 1021372
09:00+17юз79590 0.0 1020856
12:00+21зюз78505 0.0 10181532
15:00+21зюз7848100 0.0 10171583
18:00+19зюз695995 0.0 1016822
21:00+12юз41178100 0.0 1015273